Location: Killam
(52.7910°N, 111.8608°W)
Time: 16:44:55
(UTC+00:00)

Vanguard 2 Rocket - Pass Details

Date: 17 February 2026
Orbit: 553 x 3286 km, 32.9° (Epoch: 11 March)

Event Time Altitude Azimuth Distance (km) Brightness Sun altitude
Rises 00:13:55 0° 259° (WSW) 6,270 13.2 3.1°
Reaches altitude 10° 00:19:59 10° 246° (WSW) 4,724 13.2 2.3°
Maximum altitude 00:27:52 20° 206° (SSW) 3,184 10.5 1.2°
Drops below altitude 10° 00:33:34 10° 163° (SSE) 3,253 9.8 0.4°
Sets 00:36:45 0° 146° (SE) 3,846 10.0 -0.1°
